Regional Weather Roundup
Issued by NWS

Home | Current Version | Previous Version | Graphics & Text | Print | Product List | Glossary On
Versions: 1 2 3 4 5 6 7 8 9 10 11 12 13 14 15 16 17 18 19 20 21 22 23 24 25 26 27 28 29 30 31 32 33 34 35 36 37 38 39 40 41 42 43 44 45 46 47 48 49 50
000
ASUS43 KBIS 250510
RWRND

NORTH DAKOTA REGIONAL WEATHER ROUNDUP
NATIONAL WEATHER SERVICE BISMARCK ND
1200 AM CDT MON MAY 25 2015

NOTE: "FAIR" INDICATES FEW OR NO CLOUDS BELOW 12,000 FEET WITH NO
SIGNIFICANT WEATHER AND/OR OBSTRUCTIONS TO VISIBILITY.


NDZ001>003-009>011-017-250600-
NORTHWEST NORTH DAKOTA

CITY           SKY/WX    TMP DP  RH WIND       PRES   REMARKS
WILLISTON      PTCLDY    49  44  83 CALM      29.91F
MINOT          MOCLDY    58  46  64 CALM      29.90S
MINOT AFB      MOCLDY    58  49  72 CALM      29.90S
$$

NDZ018>021-031>035-040>046-250600-
SOUTHWEST NORTH DAKOTA

CITY           SKY/WX    TMP DP  RH WIND       PRES   REMARKS
BISMARCK       CLOUDY    57  55  93 CALM      29.90F
DICKINSON      CLOUDY    57  48  72 N3        29.89F
GARRISON         N/A     63  51  65 NE3       29.90S
HETTINGER ARPT CLOUDY    56  49  77 NE6       29.90S
$$

NDZ004>008-012>016-024-026-027-054-250600-
NORTHEAST NORTH DAKOTA

CITY           SKY/WX    TMP DP  RH WIND       PRES   REMARKS
GRAND FORKS    CLOUDY    57  52  83 N3        29.86S
GRND FRKS AFB  CLOUDY    56  52  84 N1        29.87S
DEVILS LAKE    CLOUDY    59  48  67 CALM      29.89S
$$

NDZ022-023-025-028>030-036>039-047>053-250600-
SOUTHEAST NORTH DAKOTA

CITY           SKY/WX    TMP DP  RH WIND       PRES   REMARKS
FARGO          CLOUDY    62  54  74 SE5       29.85F
JAMESTOWN      CLOUDY    57  55  93 NW5       29.87S
$$



USA.gov is the U.S. government's official web portal to all federal, state and local government web resources and services.